Date,TemperatureHighF,TemperatureAvgF,TemperatureLowF,DewpointHighF,DewpointAvgF,DewpointLowF,HumidityHigh,HumidityAvg,HumidityLow,PressureMaxIn,PressureMinIn,WindSpeedMaxMPH,WindSpeedAvgMPH,GustSpeedMaxMPH,PrecipitationSumIn
2013-1-1,31,28,27,29,26,25,94,93,89,30.23,30.08,6,2,10,0.01
2013-1-2,37,32,28,33,30,27,94,90,82,30.44,30.10,8,1,9,0.00
2013-1-3,49,38,31,38,32,28,92,79,53,30.53,30.32,5,1,11,0.00
2013-1-4,54,46,43,42,40,38,89,77,60,30.31,30.07,8,2,13,0.01
2013-1-5,56,46,38,45,38,26,92,72,57,30.16,29.93,7,2,15,0.02
2013-1-6,39,37,35,36,29,24,94,73,59,30.18,29.97,12,2,16,0.04
2013-1-7,42,35,28,35,26,18,89,71,47,30.42,30.02,6,1,10,0.01
2013-1-8,35,29,21,28,21,15,92,74,49,30.42,30.23,10,2,11,0.00
2013-1-9,32,30,26,30,28,24,93,91,88,30.23,30.13,3,1,7,0.00
2013-1-10,36,30,25,34,28,23,95,93,89,30.13,29.78,5,0,7,0.00
2013-1-11,42,36,30,37,31,23,93,83,70,30.00,29.75,8,1,11,0.13
2013-1-12,40,31,26,27,23,20,84,73,49,30.12,30.00,5,0,7,0.00
2013-1-13,33,30,28,28,26,24,90,86,76,30.14,30.10,9,2,13,0.01
2013-1-14,36,32,28,33,30,25,94,90,85,30.10,29.91,4,0,7,0.17
2013-1-15,38,36,34,36,34,32,95,93,90,29.92,29.74,4,0,4,0.40
2013-1-16,44,37,32,38,35,30,100,91,73,29.72,29.57,5,1,8,0.50
2013-1-17,38,36,36,35,34,33,95,90,85,29.70,29.55,3,0,6,0.12
2013-1-18,37,35,31,34,31,28,92,87,78,29.67,29.52,5,1,6,0.06
2013-1-19,35,30,28,28,25,23,89,82,69,29.64,29.49,5,1,7,0.08
2013-1-20,36,33,30,34,30,26,94,91,86,29.62,29.53,2,0,4,0.02
2013-1-21,41,38,36,40,37,34,100,94,93,29.52,29.42,2,0,4,0.18
2013-1-22,39,33,30,37,30,26,94,88,83,29.66,29.42,10,2,16,0.03
2013-1-23,38,32,29,31,28,25,88,83,76,29.85,29.66,5,1,10,0.02
2013-1-24,34,33,32,32,30,26,94,88,76,29.85,29.74,6,1,9,0.02
2013-1-25,39,32,30,26,23,19,79,70,58,29.98,29.75,4,1,11,0.00
2013-1-26,35,30,27,25,22,19,79,72,65,30.06,29.95,4,0,5,0.00
2013-1-27,33,28,20,28,22,16,87,77,63,30.06,29.91,7,1,10,0.00
2013-1-28,35,32,31,32,29,27,92,88,86,30.15,29.91,5,1,9,0.05
2013-1-29,40,36,27,38,32,25,92,86,75,30.17,30.01,4,1,9,0.12
2013-1-30,48,43,39,45,41,37,94,91,83,30.02,29.82,3,0,6,0.17
2013-1-31,54,48,43,45,36,27,94,65,45,30.03,29.79,11,2,20,0.06
2013-2-1,58,48,43,38,35,30,77,61,43,29.88,29.50,9,2,13,0.00
2013-2-2,46,43,40,44,39,35,94,86,77,29.49,29.26,6,2,10,0.54
2013-2-3,41,36,33,35,31,24,92,81,67,29.96,29.46,6,2,15,0.07
2013-2-4,41,36,29,34,30,23,90,78,62,29.97,29.91,6,1,10,0.09
2013-2-5,44,41,36,38,35,33,91,80,71,29.94,29.62,8,1,12,0.02
2013-2-6,42,39,35,39,36,33,93,90,85,29.62,29.45,7,1,8,0.35
2013-2-7,36,34,31,34,31,25,93,88,77,29.76,29.42,11,1,13,0.23
2013-2-8,47,34,26,30,25,21,84,71,48,29.86,29.75,4,1,6,0.01
2013-2-9,37,30,24,29,25,21,88,81,61,29.95,29.86,5,1,9,0.01
2013-2-10,34,31,28,30,28,24,92,87,83,29.94,29.85,3,0,4,0.00
2013-2-11,34,29,26,27,25,23,90,87,74,29.97,29.90,5,2,11,0.06
2013-2-12,37,33,27,33,29,24,90,85,74,29.93,29.84,5,1,10,0.11
2013-2-13,45,40,36,38,35,33,91,83,73,30.04,29.89,6,0,7,0.28
2013-2-14,43,38,36,38,35,33,92,88,74,30.14,30.04,2,0,5,0.06
2013-2-15,47,40,37,41,37,35,94,87,77,30.12,30.05,3,0,5,0.00
2013-2-16,52,40,32,36,33,28,91,78,53,30.18,30.11,5,1,9,0.00
2013-2-17,39,36,30,33,32,27,91,84,75,30.22,30.17,5,0,6,0.00
2013-2-18,41,36,33,33,31,27,87,81,71,30.19,30.11,5,1,7,0.00
2013-2-19,43,36,32,33,29,26,90,77,57,30.11,29.86,7,1,11,0.09
2013-2-20,46,36,28,33,30,24,89,78,53,30.08,29.87,4,1,9,0.01
2013-2-21,46,34,27,28,23,16,86,65,38,30.09,29.96,7,2,10,0.01
2013-2-22,35,33,30,33,29,23,94,86,69,29.96,29.76,4,1,8,0.03
2013-2-23,42,38,35,40,36,33,95,94,92,29.84,29.71,7,0,10,0.68
2013-2-24,45,44,41,43,41,40,94,92,85,29.93,29.80,6,1,11,0.49
2013-2-25,50,47,44,45,43,41,93,86,80,30.15,29.93,8,2,11,0.00
2013-2-26,57,51,46,46,44,41,87,77,61,30.14,30.09,8,1,11,0.00
2013-2-27,53,47,40,44,40,36,88,79,63,30.31,30.15,4,1,8,0.00
2013-2-28,53,46,40,41,37,32,89,72,49,30.33,30.19,4,1,9,0.00
2013-3-1,42,39,34,38,34,30,92,84,73,30.19,30.02,6,1,11,0.00
2013-3-2,54,43,35,32,28,26,77,58,39,30.17,30.06,6,1,9,0.00
2013-3-3,57,41,30,32,28,25,84,62,35,30.14,30.02,6,1,12,0.00
2013-3-4,54,40,30,30,26,24,83,60,34,30.35,30.10,7,0,12,0.00
2013-3-5,53,42,29,30,25,19,82,54,27,30.37,30.16,10,2,14,0.00
2013-3-6,52,44,35,39,34,28,79,67,54,30.15,29.83,3,0,7,0.00
2013-3-7,55,50,46,47,44,40,86,79,72,29.83,29.67,9,2,12,0.00
2013-3-8,60,52,46,50,47,43,91,85,69,29.68,29.60,3,0,7,0.01
2013-3-9,59,53,49,51,49,47,94,86,73,29.60,29.56,5,0,7,0.03
2013-3-10,60,52,48,49,47,46,93,84,67,29.56,29.47,6,0,7,0.03
2013-3-11,66,50,41,49,42,35,93,74,46,29.56,29.46,5,0,9,0.01
2013-3-12,60,49,39,45,38,33,87,68,46,29.57,29.45,7,2,9,0.01
2013-3-13,54,48,44,47,44,41,92,86,75,29.47,29.42,5,1,7,0.02
2013-3-14,46,38,28,42,35,26,100,91,86,29.46,29.28,4,1,8,0.71
2013-3-15,34,29,26,26,22,20,91,76,60,29.93,29.28,8,2,15,0.00
2013-3-16,41,32,25,24,19,15,75,60,47,30.17,29.93,6,1,14,0.29
2013-3-17,39,30,20,24,18,13,87,62,38,30.19,30.03,10,3,17,0.02
2013-3-18,39,35,31,38,29,20,94,79,63,30.03,29.39,11,2,15,0.56
2013-3-19,56,44,39,43,36,31,95,75,47,29.70,29.30,11,1,11,0.02
2013-3-20,61,50,37,42,36,30,80,61,38,29.76,29.71,7,2,14,0.00
2013-3-21,51,44,36,44,40,31,91,86,73,29.79,29.72,8,2,15,0.46
2013-3-22,47,39,32,33,29,24,83,68,55,29.98,29.77,12,4,19,0.00
2013-3-23,36,31,27,27,24,22,85,76,66,30.13,29.98,4,0,8,0.00
2013-3-24,37,31,24,22,12,8,71,47,32,30.21,30.11,9,2,12,0.00
2013-3-25,38,33,30,30,19,10,91,61,40,30.11,29.74,9,4,13,0.00
2013-3-26,35,32,29,30,28,27,91,87,79,29.79,29.69,6,1,9,0.02
2013-3-27,36,32,30,31,29,27,90,88,82,29.96,29.78,5,1,8,0.09
2013-3-28,38,35,32,31,29,26,90,80,66,30.05,29.96,8,2,11,0.27
2013-3-29,39,36,34,37,34,31,94,91,84,30.00,29.75,5,0,7,0.75
2013-3-30,49,42,35,42,38,34,94,87,71,29.75,29.57,5,1,8,0.45
2013-3-31,48,42,33,47,39,29,96,91,83,29.63,29.38,4,1,16,0.51
2013-4-1,51,39,33,32,29,27,83,67,43,29.90,29.63,7,1,13,0.00
2013-4-2,46,41,34,40,32,27,93,73,60,29.90,29.65,11,2,18,0.28
2013-4-3,46,43,40,45,40,37,94,92,88,29.74,29.61,4,1,8,0.31
2013-4-4,47,42,38,39,36,33,88,80,70,29.88,29.73,4,1,9,0.00
2013-4-5,45,41,37,42,38,34,93,88,76,29.86,29.65,6,1,11,0.11
2013-4-6,54,45,40,42,38,34,92,79,62,30.00,29.71,7,2,11,0.00
2013-4-7,50,44,40,39,36,33,83,74,63,30.03,29.93,11,1,12,0.00
2013-4-8,56,46,40,37,31,26,75,57,34,29.95,29.82,7,2,13,0.00
2013-4-9,53,47,43,44,40,37,87,77,64,29.83,29.77,7,2,11,0.01
2013-4-10,60,51,46,48,44,39,92,78,57,29.91,29.76,6,1,11,0.02
2013-4-11,66,56,40,46,42,36,86,62,43,29.95,29.81,12,3,18,0.00
2013-4-12,71,58,50,54,48,45,88,71,45,29.84,29.72,12,3,23,0.13
2013-4-13,67,56,48,48,44,41,88,66,44,30.23,29.83,5,1,11,0.01
2013-4-14,71,58,47,45,39,33,77,52,34,30.35,30.23,6,1,12,0.00
2013-4-15,67,54,41,42,38,35,88,58,33,30.37,30.26,5,1,7,0.00
2013-4-16,70,57,40,42,37,34,83,51,30,30.31,30.22,7,1,9,0.00
2013-4-17,73,59,43,51,41,35,80,54,27,30.26,30.18,5,1,10,0.00
2013-4-18,75,63,48,54,42,37,83,51,26,30.20,30.05,6,1,8,0.00
2013-4-19,80,65,49,46,42,38,73,46,24,30.11,29.99,4,1,11,0.00
2013-4-20,79,65,51,56,48,35,91,59,22,30.10,30.02,8,1,12,0.01
2013-4-21,76,66,55,50,46,42,69,52,37,30.11,29.95,10,2,12,0.00
2013-4-22,76,65,51,50,43,38,68,47,32,30.00,29.90,8,1,14,0.00
2013-4-23,75,64,52,54,50,48,86,63,41,30.22,30.00,12,1,13,0.00
2013-4-24,81,68,55,51,46,41,73,48,30,30.32,30.22,12,1,12,0.00
2013-4-25,84,68,51,52,47,43,80,51,25,30.26,30.14,10,1,14,0.00
2013-4-26,83,70,54,54,48,42,80,48,25,30.14,29.75,10,2,17,0.00
2013-4-27,81,72,62,54,50,44,57,46,36,29.75,29.68,15,4,26,0.00
2013-4-28,80,69,59,62,55,50,83,63,44,29.98,29.73,9,2,18,0.20
2013-4-29,83,71,56,57,54,51,88,57,36,30.07,29.98,14,3,24,0.00
2013-4-30,88,74,59,61,55,51,85,55,33,30.09,29.97,7,1,10,0.00
2013-5-1,89,77,63,63,57,51,73,51,34,30.08,30.00,6,1,11,0.00
2013-5-2,84,72,61,66,59,55,88,66,46,30.05,29.84,11,2,15,0.83
2013-5-3,80,67,58,65,60,53,91,77,58,29.89,29.80,5,0,11,0.02
2013-5-4,77,64,54,58,54,51,88,72,49,30.06,29.88,9,2,13,0.00
2013-5-5,82,68,54,59,56,50,89,66,44,30.16,30.06,7,1,10,0.00
2013-5-6,80,67,62,64,57,51,92,72,47,30.13,30.03,7,1,19,0.69
2013-5-7,73,66,59,63,60,57,94,82,66,30.07,29.98,7,2,16,0.14
2013-5-8,76,67,58,64,58,53,94,74,46,30.05,29.95,4,1,9,0.12
2013-5-9,80,68,57,61,55,51,92,65,41,30.06,29.98,6,1,11,0.00
2013-5-10,78,69,54,57,52,49,86,58,39,30.00,29.83,16,2,20,0.00
2013-5-11,77,66,58,63,58,53,88,76,55,29.87,29.75,6,2,14,0.02
2013-5-12,68,60,55,56,52,49,92,78,63,29.80,29.72,10,3,16,0.00
2013-5-13,65,57,53,49,46,39,82,67,49,29.94,29.80,8,2,15,0.00
2013-5-14,66,58,50,51,47,43,86,68,54,29.95,29.89,6,1,12,0.00
2013-5-15,74,62,48,54,50,45,91,67,49,29.90,29.77,7,1,12,0.00
2013-5-16,75,67,53,58,53,48,87,63,44,29.81,29.67,12,2,19,0.00
2013-5-17,70,66,58,60,58,54,93,78,63,29.73,29.66,9,2,16,0.69
2013-5-18,77,66,56,57,54,49,94,68,42,29.93,29.71,11,3,16,0.00
2013-5-19,81,69,53,58,53,49,90,60,38,29.94,29.75,10,2,17,0.10
2013-5-20,75,65,57,58,52,48,88,64,46,29.94,29.80,6,1,10,0.02
2013-5-21,72,64,54,52,49,45,82,60,44,29.93,29.81,9,2,15,0.00
2013-5-22,69,61,55,55,50,46,82,70,51,29.81,29.65,8,1,14,0.07
2013-5-23,67,59,52,51,48,43,82,65,55,29.71,29.57,7,1,13,0.00
2013-5-24,70,60,52,52,47,43,80,64,50,29.73,29.60,6,1,11,0.00
2013-5-25,68,59,52,51,48,45,81,68,48,29.77,29.70,5,1,11,0.00
2013-5-26,71,58,51,52,47,39,90,69,47,29.79,29.70,6,1,13,0.17
2013-5-27,61,54,49,49,44,39,82,70,59,29.83,29.77,5,1,10,0.01
2013-5-28,70,59,49,55,49,44,83,70,53,29.82,29.69,9,3,14,0.02
2013-5-29,79,65,50,58,53,47,90,68,45,29.70,29.54,9,2,12,0.00
2013-5-30,66,60,53,60,56,50,93,85,75,29.58,29.46,11,1,12,0.50
2013-5-31,66,56,50,53,49,46,90,78,54,29.61,29.53,8,2,14,0.01
2013-6-1,69,58,46,55,50,44,94,77,52,29.71,29.61,6,1,8,0.17
2013-6-2,74,60,50,57,52,47,92,75,53,29.84,29.69,7,1,11,0.00
2013-6-3,64,57,53,54,52,49,89,81,68,29.92,29.84,8,3,14,0.00
2013-6-4,74,60,53,60,54,49,90,82,61,29.93,29.83,7,2,12,0.04
2013-6-5,71,62,55,62,57,52,92,85,68,30.03,29.92,4,0,7,0.23
2013-6-6,76,64,54,64,58,52,93,83,62,30.07,30.01,5,0,8,0.14
2013-6-7,80,68,58,63,59,56,93,74,46,30.04,29.96,10,1,11,0.00
2013-6-8,86,72,60,66,59,55,88,65,37,29.99,29.87,7,1,15,0.33
2013-6-9,84,72,58,63,59,55,92,66,45,29.89,29.76,7,2,12,0.00
2013-6-10,83,71,61,63,59,56,91,69,45,29.79,29.66,9,2,16,0.28
2013-6-11,76,64,59,62,58,51,93,80,54,29.87,29.74,4,1,8,0.01
2013-6-12,82,68,55,64,57,50,89,68,44,30.07,29.88,9,1,15,0.02
2013-6-13,85,74,62,58,54,51,74,53,34,30.09,29.99,8,1,15,0.00
2013-6-14,88,73,58,65,59,53,88,62,37,30.02,29.95,4,1,11,0.00
2013-6-15,88,76,61,67,62,57,91,64,41,29.99,29.92,4,0,9,0.00
2013-6-16,91,78,64,70,64,59,88,65,40,30.02,29.97,6,1,9,0.00
2013-6-17,94,80,65,69,65,61,89,63,40,30.04,29.97,5,0,7,0.00
2013-6-18,95,82,68,71,65,61,89,58,35,30.03,29.96,7,1,10,0.00
2013-6-19,98,85,69,71,66,62,80,56,34,30.00,29.94,7,1,9,0.00
2013-6-20,97,86,74,74,69,66,77,58,39,30.00,29.88,7,2,12,0.00
2013-6-21,95,85,76,72,69,65,81,61,37,29.91,29.86,6,1,11,0.00
2013-6-22,97,83,71,72,68,59,86,62,33,29.92,29.82,6,1,9,0.00
2013-6-23,88,78,69,72,68,64,93,72,51,29.89,29.80,4,0,12,0.24
2013-6-24,81,67,58,65,60,55,90,79,55,29.84,29.76,9,2,19,0.35
2013-6-25,63,59,56,58,55,52,88,85,79,30.02,29.79,5,1,12,0.02
2013-6-26,71,61,54,54,51,50,88,72,55,30.19,30.01,9,2,15,0.01
2013-6-27,71,61,54,57,52,48,81,73,56,30.18,30.10,6,1,12,0.00
2013-6-28,76,63,56,59,55,52,91,77,50,30.11,30.01,6,0,11,0.61
2013-6-29,80,68,56,60,55,50,93,67,41,30.03,29.92,9,1,12,0.00
2013-6-30,82,67,56,59,54,46,83,63,43,30.05,29.96,9,2,16,0.00
2013-7-1,78,66,53,54,49,45,79,57,41,30.10,30.05,5,1,14,0.00
2013-7-2,83,70,54,56,52,47,83,56,31,30.12,30.01,5,1,9,0.00
2013-7-3,85,72,56,56,53,51,84,54,33,30.05,29.93,6,1,12,0.00
2013-7-4,90,77,58,62,57,53,85,53,31,30.05,29.98,8,1,14,0.00
2013-7-5,91,77,66,68,62,59,85,64,35,30.14,30.05,12,1,18,0.76
2013-7-6,94,78,69,72,64,61,84,65,43,30.22,30.13,13,1,16,0.05
2013-7-7,92,82,70,67,63,61,74,55,40,30.24,30.16,8,2,13,0.00
2013-7-8,88,78,69,63,60,57,71,54,39,30.26,30.17,8,2,11,0.00
2013-7-9,89,78,68,62,58,55,68,52,36,30.22,30.02,6,1,13,0.00
2013-7-10,90,77,61,63,59,54,86,56,34,30.02,29.82,4,1,8,0.00
2013-7-11,81,71,63,63,58,50,82,64,49,29.94,29.80,8,2,13,0.00
2013-7-12,78,69,58,57,54,52,79,59,44,30.04,29.96,9,1,12,0.00
2013-7-13,82,71,59,58,55,51,81,58,41,30.05,30.00,7,1,13,0.00
2013-7-14,84,73,61,58,54,50,76,54,34,30.05,29.98,7,1,14,0.00
2013-7-15,84,72,63,62,55,49,77,56,38,30.09,29.97,8,1,13,0.00
2013-7-16,84,73,60,55,52,49,71,49,34,30.18,30.09,7,1,14,0.00
2013-7-17,86,73,60,61,56,53,79,56,37,30.19,30.10,4,1,11,0.00
2013-7-18,90,75,62,64,58,55,81,58,34,30.15,30.06,4,0,7,0.00
2013-7-19,87,77,69,66,62,55,78,60,43,30.09,29.94,5,0,9,0.00
2013-7-20,91,80,66,64,58,53,72,48,34,30.05,29.93,10,1,11,0.00
2013-7-21,84,75,61,56,53,48,71,48,33,30.11,30.05,6,1,10,0.00
2013-7-22,89,75,59,60,54,52,79,52,32,30.12,29.93,5,0,8,0.00
2013-7-23,93,79,64,60,55,49,71,46,29,29.93,29.85,7,1,11,0.00
2013-7-24,94,79,65,60,52,41,73,42,23,29.95,29.87,7,1,13,0.00
2013-7-25,82,75,63,62,56,45,66,52,41,29.99,29.92,4,0,7,0.00
2013-7-26,94,79,64,64,60,57,78,54,36,30.00,29.91,9,1,11,0.00
2013-7-27,94,82,67,66,63,59,80,53,36,29.95,29.88,7,1,11,0.00
2013-7-28,97,85,70,68,62,57,81,51,28,29.95,29.90,10,2,14,0.00
2013-7-29,99,87,72,68,62,54,72,45,32,29.95,29.78,8,2,13,0.00
2013-7-30,83,76,69,68,60,54,86,59,37,30.02,29.83,8,2,17,0.08
2013-7-31,88,78,64,62,58,54,79,52,36,30.04,29.98,9,1,12,0.00
2013-8-1,92,79,69,63,59,57,66,51,36,30.07,30.00,6,1,10,0.00
2013-8-2,95,82,64,64,60,57,80,49,30,30.08,29.96,5,1,12,0.00
2013-8-3,100,85,67,65,60,54,75,46,23,30.00,29.93,7,1,9,0.00
2013-8-4,95,86,74,63,60,56,63,43,30,30.08,29.97,7,1,12,0.00
2013-8-5,98,84,70,67,63,57,74,50,30,30.12,29.98,6,1,10,0.00
2013-8-6,97,86,68,67,61,57,78,46,28,30.03,29.92,4,1,11,0.00
2013-8-7,98,86,70,66,60,56,70,43,25,29.96,29.89,7,1,12,0.00
2013-8-8,101,87,71,65,60,57,67,42,24,29.97,29.89,4,1,10,0.00
2013-8-9,102,88,72,68,61,58,71,42,24,29.93,29.77,7,1,9,0.00
2013-8-10,76,71,67,66,61,56,87,72,59,29.96,29.83,14,3,18,0.06
2013-8-11,90,76,64,59,53,45,71,47,25,30.00,29.94,6,1,11,0.00
2013-8-12,91,79,64,62,56,53,74,47,29,30.04,29.93,6,1,12,0.00
2013-8-13,94,76,63,62,57,54,85,54,30,30.03,29.92,6,1,14,0.02
2013-8-14,78,70,63,62,54,48,84,58,42,30.15,30.00,3,0,10,0.02
2013-8-15,84,69,54,56,51,47,82,57,34,30.21,30.13,6,1,10,0.00
2013-8-16,86,69,54,52,48,46,78,51,27,30.20,30.07,7,1,12,0.00
2013-8-17,86,72,55,52,48,46,78,46,26,30.11,29.99,7,1,11,0.00
2013-8-18,89,76,58,55,50,47,71,42,25,30.06,29.96,7,1,10,0.00
2013-8-19,94,80,62,56,52,50,68,41,24,30.02,29.88,6,1,11,0.00
2013-8-20,80,72,66,65,62,53,81,71,39,30.11,29.93,9,2,16,0.00
2013-8-21,80,72,65,64,60,56,80,67,54,30.16,30.10,5,1,9,0.00
2013-8-22,80,70,59,60,56,53,84,62,45,30.13,30.02,9,1,9,0.00
2013-8-23,85,72,58,59,54,50,79,54,35,30.08,29.96,7,1,10,0.00
2013-8-24,85,72,63,57,53,50,68,53,37,30.01,29.88,4,0,8,0.00
2013-8-25,83,72,65,62,55,52,84,59,37,29.91,29.81,6,1,13,0.02
2013-8-26,73,67,62,66,62,59,92,84,71,29.93,29.84,6,0,10,0.35
2013-8-27,76,68,61,61,60,58,93,76,56,29.95,29.87,4,1,9,0.00
2013-8-28,76,67,62,65,60,57,93,79,57,29.91,29.85,4,1,7,0.57
2013-8-29,84,68,61,66,59,56,90,76,41,30.10,29.91,5,0,11,0.39
2013-8-30,82,68,58,61,56,51,90,70,42,30.12,30.05,6,1,8,0.01
2013-8-31,85,69,53,59,53,50,91,61,34,30.10,30.03,5,0,10,0.00
2013-9-1,77,68,58,60,55,48,76,64,50,30.16,30.03,7,1,12,0.00
2013-9-2,75,64,55,51,47,44,73,55,39,30.21,30.11,6,1,18,0.00
2013-9-3,79,67,60,62,55,48,82,66,54,30.22,30.04,9,2,19,0.00
2013-9-4,81,67,53,55,49,46,81,55,34,30.27,30.17,8,1,10,0.00
2013-9-5,81,66,52,56,50,47,85,60,36,30.17,30.04,4,0,8,0.00
2013-9-6,80,67,53,54,50,46,81,57,34,30.08,29.98,6,1,9,0.00
2013-9-7,80,67,52,51,47,44,78,53,33,30.16,30.06,4,1,8,0.00
2013-9-8,82,68,52,52,48,46,82,53,30,30.22,30.12,5,1,9,0.00
2013-9-9,68,61,57,59,54,47,90,77,53,30.12,30.03,4,0,7,0.17
2013-9-10,71,62,53,59,56,51,94,83,61,30.11,29.97,4,1,8,0.01
2013-9-11,69,60,56,60,54,47,93,80,56,29.97,29.91,4,1,12,0.30
2013-9-12,75,64,56,53,50,47,85,63,42,29.96,29.90,6,1,14,0.01
2013-9-13,72,61,54,53,50,48,81,69,51,30.00,29.94,7,2,14,0.00
2013-9-14,61,57,55,55,53,50,91,86,80,29.99,29.88,5,1,10,0.21
2013-9-15,77,66,53,59,56,51,93,72,52,29.94,29.76,4,0,9,0.00
2013-9-16,79,66,56,62,58,53,92,75,51,29.75,29.54,5,0,7,0.00
2013-9-17,63,56,50,60,51,42,92,83,72,29.68,29.42,8,2,22,0.21
2013-9-18,68,56,45,51,46,41,90,69,41,29.68,29.55,12,2,16,0.00
2013-9-19,67,59,53,53,48,43,85,69,47,29.93,29.55,6,1,18,0.00
2013-9-20,71,59,49,52,48,44,84,68,44,30.04,29.92,4,1,9,0.00
2013-9-21,72,61,54,55,52,47,89,73,54,30.24,30.03,7,1,12,0.00
2013-9-22,71,60,47,51,47,43,88,66,48,30.30,30.18,5,1,8,0.00
2013-9-23,71,62,55,57,52,45,79,71,59,30.18,29.95,10,1,13,0.00
2013-9-24,74,64,59,56,52,50,75,67,54,29.95,29.89,7,1,11,0.00
2013-9-25,69,61,53,53,51,48,86,71,55,29.99,29.89,5,1,8,0.00
2013-9-26,77,61,52,61,54,47,88,79,54,29.94,29.79,6,0,17,0.07
2013-9-27,62,54,47,52,46,42,88,75,58,30.08,29.94,4,1,11,0.00
2013-9-28,67,53,42,48,42,39,91,69,41,30.03,29.95,7,1,9,0.00
2013-9-29,63,55,46,44,41,39,85,62,45,30.02,29.92,7,1,14,0.00
2013-9-30,63,56,50,44,41,38,67,58,48,29.92,29.79,10,2,18,0.00
2013-10-1,68,57,50,44,41,39,67,56,41,29.96,29.79,6,1,12,0.00
2013-10-2,57,52,41,40,35,28,66,54,37,30.34,29.96,10,2,15,0.00
2013-10-3,59,47,38,31,27,24,67,47,28,30.52,30.34,9,2,17,0.00
2013-10-4,58,44,30,31,28,25,83,57,34,30.54,30.43,5,0,8,0.00
2013-10-5,58,46,31,35,30,26,85,58,33,30.43,30.23,7,1,10,0.00
2013-10-6,65,52,40,42,36,32,74,57,33,30.31,30.24,5,0,6,0.00
2013-10-7,70,57,49,45,42,39,76,60,33,30.37,30.30,3,0,7,0.00
2013-10-8,70,57,43,44,40,37,86,58,30,30.36,30.25,4,0,7,0.00
2013-10-9,64,56,48,50,45,39,81,67,47,30.25,30.02,9,1,12,0.00
2013-10-10,57,55,53,54,52,49,91,88,82,30.02,29.88,4,1,7,0.09
2013-10-11,72,62,55,58,55,52,92,78,59,30.07,29.94,10,2,12,0.01
2013-10-12,76,65,55,61,58,52,93,77,58,30.14,30.06,6,1,8,0.53
2013-10-13,74,61,50,62,54,46,95,79,48,30.18,30.08,6,0,11,0.09
2013-10-14,66,56,46,55,49,43,92,80,61,30.20,30.09,3,0,6,0.00
2013-10-15,73,58,49,58,52,46,93,80,53,30.08,29.80,6,0,9,0.00
2013-10-16,52,50,48,49,47,45,92,90,86,29.79,29.61,8,2,14,0.55
2013-10-17,69,55,49,51,46,44,86,73,50,29.97,29.76,6,2,13,0.00
2013-10-18,67,56,48,49,46,43,88,72,52,30.12,29.92,6,1,22,0.06
2013-10-19,57,50,44,48,42,40,93,74,58,30.29,30.12,5,1,13,0.00
2013-10-20,68,56,43,53,47,40,90,73,53,30.25,30.10,4,0,6,0.00
2013-10-21,76,60,52,57,53,50,92,78,50,30.14,30.08,5,0,7,0.00
2013-10-22,69,60,50,59,55,48,94,84,69,30.15,30.09,4,0,6,0.01
2013-10-23,77,67,60,59,57,54,91,72,53,30.09,29.96,13,2,19,0.00
2013-10-24,80,64,54,60,56,51,91,75,50,30.16,30.04,5,0,7,0.00
2013-10-25,78,64,53,60,55,51,92,74,52,30.18,30.10,3,0,5,0.00
2013-10-26,77,62,51,58,54,49,92,76,50,30.13,30.09,5,0,11,0.00
2013-10-27,71,60,50,59,54,48,94,81,62,30.12,29.91,6,1,11,0.00
2013-10-28,70,65,60,60,56,51,83,71,59,30.03,29.88,6,1,12,0.00
2013-10-29,73,61,53,58,54,47,93,76,58,30.05,29.88,6,1,10,0.28
2013-10-30,70,57,52,54,47,40,89,70,52,30.30,30.04,5,1,10,0.20
2013-10-31,65,53,44,45,40,37,82,64,40,30.38,30.29,5,0,6,0.00
2013-11-1,61,52,47,48,44,41,89,75,57,30.29,30.11,4,0,5,0.00
2013-11-2,64,56,50,55,51,47,92,85,70,30.11,29.86,9,2,14,0.02
2013-11-3,63,54,50,59,51,43,94,89,77,29.89,29.61,8,1,15,0.33
2013-11-4,54,50,44,51,45,40,92,82,68,29.92,29.51,8,1,15,0.02
2013-11-5,54,51,46,52,48,40,95,91,81,29.51,29.44,4,1,10,0.42
2013-11-6,64,49,38,44,40,35,88,72,44,29.86,29.49,7,0,10,0.00
2013-11-7,61,54,48,51,46,41,91,77,62,30.03,29.86,7,1,12,0.02
2013-11-8,60,51,44,52,47,42,93,87,73,30.03,29.96,3,0,6,0.00
2013-11-9,61,53,50,53,49,47,93,86,73,29.96,29.84,7,1,12,0.05
2013-11-10,62,52,48,48,46,44,91,79,53,29.84,29.72,7,1,9,0.02
2013-11-11,53,51,50,48,45,41,91,79,70,30.27,29.79,8,1,9,0.10
2013-11-12,63,54,48,46,43,38,81,66,49,30.34,30.27,5,0,6,0.00
2013-11-13,52,49,45,49,45,41,88,84,81,30.28,30.24,8,1,12,0.00
2013-11-14,48,46,45,44,41,37,90,81,68,30.28,30.14,3,0,6,0.00
2013-11-15,51,48,46,43,40,38,84,75,70,30.38,30.16,3,0,5,0.00
2013-11-16,60,48,42,46,42,39,91,80,57,30.41,30.32,3,0,6,0.00
2013-11-17,54,45,38,45,41,35,93,86,71,30.32,30.24,2,0,4,0.00
2013-11-18,45,44,42,43,42,40,95,93,90,30.24,30.07,6,1,11,0.02
2013-11-19,46,44,41,42,41,39,93,88,79,30.07,29.75,7,2,11,0.01
2013-11-20,56,49,45,48,45,41,93,86,67,29.75,29.56,4,0,8,0.20
2013-11-21,48,45,39,47,42,37,95,90,82,29.68,29.60,6,0,9,0.30
2013-11-22,51,49,47,48,47,46,95,91,87,29.77,29.62,5,1,8,0.00
2013-11-23,58,51,46,50,46,44,90,84,74,29.79,29.71,4,0,7,0.02
2013-11-24,51,48,42,50,45,40,96,90,80,29.72,29.67,3,0,8,0.54
2013-11-25,42,38,35,39,32,28,91,79,69,30.07,29.68,8,2,15,0.12
2013-11-26,41,37,34,31,28,24,78,72,65,30.24,30.06,3,0,10,0.00
2013-11-27,48,36,28,25,23,21,77,60,37,30.45,30.24,9,1,13,0.00
2013-11-28,46,36,26,33,25,20,84,68,38,30.44,30.24,6,1,11,0.00
2013-11-29,50,40,36,38,33,30,82,74,59,30.24,30.06,6,1,14,0.00
2013-11-30,42,38,32,33,31,28,87,76,65,30.28,30.00,6,1,10,0.00
2013-12-1,54,38,30,37,31,27,91,77,51,30.34,30.27,5,0,8,0.00
2013-12-2,58,43,36,37,32,27,83,68,46,30.62,30.26,5,1,13,0.00
2013-12-3,46,36,29,29,25,22,82,65,46,30.64,30.49,3,0,7,0.00
2013-12-4,33,28,24,30,25,20,92,87,78,30.48,30.19,5,0,7,0.00
2013-12-5,46,38,34,34,31,29,89,76,61,30.30,29.88,8,2,18,0.00
2013-12-6,48,40,35,36,29,25,90,67,49,29.90,29.74,10,3,18,0.06
2013-12-7,42,37,34,30,26,23,82,67,50,30.21,29.90,10,2,21,0.00
2013-12-8,48,41,35,37,34,28,85,78,66,30.35,30.20,3,0,9,0.01
2013-12-9,50,45,42,42,38,31,84,75,60,30.31,30.15,9,2,23,0.05
2013-12-10,45,39,31,41,30,21,87,73,54,30.76,30.27,5,1,10,0.00
2013-12-11,41,34,28,27,23,20,79,64,48,30.75,30.60,3,0,6,0.00
2013-12-12,38,36,35,33,31,26,89,82,67,30.60,30.44,3,0,5,0.00
2013-12-13,35,34,34,32,31,30,90,87,85,30.44,30.33,3,0,6,0.00
2013-12-14,35,34,32,31,30,29,88,86,82,30.49,30.35,3,0,5,0.00
2013-12-15,40,37,35,36,34,32,91,88,84,30.58,30.48,4,1,8,0.00
2013-12-16,36,35,34,34,33,32,93,91,88,30.69,30.57,7,1,9,0.00
2013-12-17,34,33,31,32,31,29,94,93,90,30.68,30.54,7,2,11,0.00
2013-12-18,33,31,29,31,29,27,93,91,89,30.54,30.34,5,2,7,0.00
2013-12-19,31,30,28,30,28,26,95,92,89,30.34,30.18,7,2,12,0.00
2013-12-20,34,31,29,32,30,28,95,94,92,30.50,30.25,6,1,7,0.00
2013-12-21,50,38,33,38,33,30,92,81,59,30.63,30.50,7,1,8,0.00
2013-12-22,35,34,33,33,32,30,93,90,88,30.59,30.35,5,1,6,0.00
2013-12-23,42,38,35,38,36,33,94,90,87,30.35,30.30,3,0,7,0.00
2013-12-24,46,38,34,40,36,32,95,91,76,30.30,30.02,3,0,7,0.01
2013-12-25,50,42,33,37,34,31,93,75,59,30.01,29.77,7,2,15,0.01
2013-12-26,47,42,37,45,38,34,92,86,77,29.78,29.61,1,0,4,0.09
2013-12-27,57,47,40,46,42,37,92,83,66,30.01,29.69,2,0,6,0.02
2013-12-28,47,40,36,46,38,34,95,91,88,30.06,29.98,4,0,9,0.01
2013-12-29,51,44,39,43,40,38,96,85,69,30.22,29.96,5,1,8,0.00
2013-12-30,48,45,42,43,40,37,91,81,71,30.37,30.22,4,0,8,0.06
2013-12-31,42,40,38,39,37,34,94,88,79,30.33,30.23,6,1,8,0.01
2014-1-1,40,38,36,37,35,33,92,86,82,30.23,30.14,9,2,11,0.00
2014-1-2,44,40,36,38,36,33,89,84,74,30.14,29.97,6,1,8,0.00